Location: Maiden
(35.5760°N, 81.2120°W)
Time: 02:45:25
(UTC-04:00)

Cosmos 1697 Rocket - Pass Details

Date: 02 August 2020
Orbit: 834 x 842 km, 71.0° (Epoch: 11 August)

Event Time Altitude Azimuth Distance (km) Brightness Sun altitude
Rises 23:35:43 0° 340° (NNW) 3,387 7.0 -30.4°
Reaches altitude 10° 23:38:10 10° 342° (NNW) 2,449 6.0 -30.7°
Enters shadow 23:42:42 58° 1° (N) 968 3.1 -31.1°
